STARLINK-1991 (47587 NORAD) Tracking and Keplerian Element Data

This shows tracking and keplerian element data for the satellite.

Feedback or suggestion? Click here.




ElementValue
Catalog47587
NameSTARLINK-1991
Epoch Orbit407
Epoch Day57.16667824
Epoch Year2021
RAAN16.3929
Inclination53.0534
Eccentricity0.0001222
Argument of Perigee72.8139
Mean Anonmoly273.3743
Mean Motion15.62735926
Decay Rate-0.00077603
L11 47587U 21009AR 21057.16667824 -.00077603 00000-0 -85038-3 0 9990
L22 47587 53.0534 16.3929 0001222 72.8139 273.3743 15.62735926 4076

Live tracking and technical data element details for STARLINK-1991 (NORAD 47587). STARLINK-1991 can be tracked NOW for your location showing map with azimuth and elevation plus other details from your city location.

Track the satellite on the map from your city or location and see movement details for azimuth, elevation, latitude, longitude, range, height, and movement on the map or in text.







IsCatalogInMostPopularTable: catalog: 47587, numindb: 1
Update: records affected: 1



GetName: 47587 STARLINK-1991

Hit Count: updated at: Fri, 26 Feb 2021 09:39:54 GMT